• In Portugal
  • List of Countries
  • For 7 days
  • Water Temperature
  • Satellite Maps
  • Weather Map
  • Weather Widgets
  • user-avatar
    Login

    Hourly Weather Marmaris

    Today, 16 December, Saturday

    Time Temperature Precipitation Wind Pressure Humidity
    00:00 +13°C° 0 mm 2 mps 761 mmHg 92%
    01:00 +13°C° 0 mm 2 mps 761 mmHg 92%
    02:00 +12°C° 0 mm 3 mps 761 mmHg 92%
    03:00 +12°C° 0 mm 3 mps 761 mmHg 92%
    04:00 +12°C° 0 mm 3 mps 760 mmHg 91%
    05:00 +13°C° 0 mm 3 mps 760 mmHg 91%
    06:00 +13°C° 0 mm 3 mps 761 mmHg 91%
    07:00 +13°C° 0 mm 3 mps 761 mmHg 90%
    08:00 +14°C° 0 mm 2 mps 761 mmHg 90%
    09:00 +16°C° 0 mm 3 mps 761 mmHg 84%
    10:00 +17°C° 0 mm 3 mps 761 mmHg 78%
    11:00 +18°C° 0 mm 3 mps 761 mmHg 72%
    12:00 +19°C° 0 mm 4 mps 760 mmHg 71%
    13:00 +19°C° 0 mm 4 mps 760 mmHg 71%
    14:00 +19°C° 0 mm 4 mps 759 mmHg 70%
    15:00 +18°C° 0.1 mm 4 mps 759 mmHg 75%
    16:00 +16°C° 0.1 mm 5 mps 759 mmHg 81%
    17:00 +15°C° 0.1 mm 5 mps 759 mmHg 87%
    18:00 +15°C° 0.2 mm 5 mps 760 mmHg 88%
    19:00 +15°C° 0.2 mm 5 mps 760 mmHg 89%
    20:00 +15°C° 0.2 mm 5 mps 760 mmHg 90%
    21:00 +15°C° 1.4 mm 5 mps 760 mmHg 91%
    22:00 +15°C° 1.4 mm 5 mps 760 mmHg 92%
    23:00 +15°C° 1.4 mm 4 mps 760 mmHg 93%

    Tomorrow, 17 December, Sunday

    Time Temperature Precipitation Wind Pressure Humidity
    00:00 +15°C° 0.3 mm 5 mps 760 mmHg 93%
    01:00 +15°C° 0.3 mm 5 mps 760 mmHg 92%
    02:00 +14°C° 0.3 mm 5 mps 759 mmHg 92%
    03:00 +14°C° 0.1 mm 6 mps 759 mmHg 91%
    04:00 +14°C° 0.1 mm 6 mps 759 mmHg 90%
    05:00 +14°C° 0.1 mm 6 mps 758 mmHg 89%
    06:00 +14°C° 0.2 mm 6 mps 758 mmHg 89%
    07:00 +14°C° 0.2 mm 7 mps 758 mmHg 89%
    08:00 +14°C° 0.2 mm 7 mps 759 mmHg 89%
    09:00 +15°C° 0.3 mm 7 mps 759 mmHg 86%
    10:00 +16°C° 0.3 mm 7 mps 759 mmHg 84%
    11:00 +16°C° 0.3 mm 8 mps 758 mmHg 81%
    12:00 +16°C° 0.6 mm 7 mps 758 mmHg 82%
    13:00 +16°C° 0.6 mm 7 mps 758 mmHg 83%
    14:00 +16°C° 0.6 mm 6 mps 757 mmHg 84%
    15:00 +16°C° 0.7 mm 6 mps 757 mmHg 86%
    16:00 +15°C° 0.7 mm 5 mps 757 mmHg 89%
    17:00 +15°C° 0.7 mm 4 mps 757 mmHg 91%
    18:00 +15°C° 0.8 mm 4 mps 758 mmHg 92%
    19:00 +15°C° 0.8 mm 4 mps 758 mmHg 93%
    20:00 +14°C° 0.8 mm 3 mps 758 mmHg 94%
    21:00 +14°C° 1.1 mm 3 mps 759 mmHg 94%
    22:00 +14°C° 1.1 mm 3 mps 759 mmHg 94%
    23:00 +14°C° 1.1 mm 3 mps 759 mmHg 94%

    Day after tomorrow, 18 December, Monday

    Time Temperature Precipitation Wind Pressure Humidity
    00:00 +14°C° 1 mm 3 mps 759 mmHg 94%
    01:00 +15°C° 1 mm 2 mps 759 mmHg 94%
    02:00 +15°C° 1 mm 2 mps 759 mmHg 94%
    03:00 +15°C° 0.4 mm 2 mps 759 mmHg 94%
    04:00 +14°C° 0.4 mm 2 mps 759 mmHg 94%
    05:00 +14°C° 0.4 mm 2 mps 759 mmHg 94%
    06:00 +14°C° 0.1 mm 2 mps 759 mmHg 94%
    07:00 +14°C° 0.1 mm 2 mps 759 mmHg 93%
    08:00 +14°C° 0.1 mm 2 mps 759 mmHg 93%
    09:00 +15°C° 0.1 mm 2 mps 759 mmHg 85%
    10:00 +16°C° 0.1 mm 2 mps 759 mmHg 78%
    11:00 +17°C° 0.1 mm 2 mps 759 mmHg 71%
    12:00 +17°C° 0.1 mm 3 mps 759 mmHg 69%
    13:00 +17°C° 0.1 mm 3 mps 759 mmHg 68%
    14:00 +17°C° 0.1 mm 3 mps 758 mmHg 67%
    15:00 +16°C° 0.1 mm 3 mps 758 mmHg 72%
    16:00 +14°C° 0.1 mm 3 mps 758 mmHg 77%
    17:00 +13°C° 0.1 mm 3 mps 758 mmHg 81%
    18:00 +13°C° 0 mm 2 mps 759 mmHg 83%
    19:00 +13°C° 0 mm 2 mps 759 mmHg 84%
    20:00 +12°C° 0 mm 2 mps 759 mmHg 85%
    21:00 +12°C° 0 mm 2 mps 760 mmHg 85%
    22:00 +10°C° 0 mm 2 mps 760 mmHg 85%
    23:00 +10°C° 0 mm 2 mps 760 mmHg 86%

    19 December, Tuesday

    Time Temperature Precipitation Wind Pressure Humidity
    00:00 +10°C° 0 mm 2 mps 761 mmHg 86%
    01:00 +9°C° 0 mm 2 mps 761 mmHg 86%
    02:00 +9°C° 0 mm 3 mps 761 mmHg 87%
    03:00 +9°C° 0 mm 3 mps 761 mmHg 87%
    04:00 +9°C° 0 mm 3 mps 761 mmHg 87%
    05:00 +8°C° 0 mm 3 mps 761 mmHg 87%
    06:00 +8°C° 0 mm 3 mps 762 mmHg 84%
    07:00 +8°C° 0 mm 3 mps 762 mmHg 82%
    08:00 +8°C° 0 mm 3 mps 762 mmHg 79%
    09:00 +10°C° 0 mm 3 mps 763 mmHg 68%
    10:00 +12°C° 0 mm 3 mps 763 mmHg 57%
    11:00 +14°C° 0 mm 3 mps 763 mmHg 46%
    12:00 +14°C° 0 mm 3 mps 763 mmHg 43%
    13:00 +16°C° 0 mm 3 mps 762 mmHg 40%
    14:00 +15°C° 0 mm 4 mps 762 mmHg 38%
    15:00 +13°C° 0 mm 4 mps 762 mmHg 43%
    16:00 +12°C° 0 mm 4 mps 762 mmHg 49%
    17:00 +10°C° 0 mm 4 mps 762 mmHg 55%
    18:00 +10°C° 0 mm 4 mps 763 mmHg 59%
    19:00 +8°C° 0 mm 4 mps 763 mmHg 63%
    20:00 +7°C° 0 mm 4 mps 763 mmHg 67%
    21:00 +7°C° 0 mm 4 mps 763 mmHg 69%
    22:00 +6°C° 0 mm 4 mps 763 mmHg 72%
    23:00 +6°C° 0 mm 4 mps 763 mmHg 74%

    20 December, Wednesday

    Time Temperature Precipitation Wind Pressure Humidity
    00:00 +6°C° 0 mm 4 mps 763 mmHg 73%
    01:00 +6°C° 0 mm 4 mps 763 mmHg 72%
    02:00 +6°C° 0 mm 4 mps 763 mmHg 71%
    03:00 +6°C° 0 mm 4 mps 763 mmHg 71%
    04:00 +6°C° 0 mm 4 mps 763 mmHg 70%
    05:00 +6°C° 0 mm 4 mps 763 mmHg 70%
    06:00 +6°C° 0 mm 4 mps 763 mmHg 70%
    07:00 +6°C° 0 mm 4 mps 763 mmHg 70%
    08:00 +5°C° 0 mm 4 mps 764 mmHg 71%
    09:00 +8°C° 0 mm 3 mps 764 mmHg 64%
    10:00 +10°C° 0 mm 3 mps 764 mmHg 58%
    11:00 +12°C° 0 mm 3 mps 764 mmHg 51%
    12:00 +13°C° 0 mm 3 mps 763 mmHg 48%
    13:00 +13°C° 0 mm 3 mps 763 mmHg 44%
    14:00 +14°C° 0 mm 3 mps 763 mmHg 41%
    15:00 +13°C° 0 mm 3 mps 763 mmHg 46%
    16:00 +11°C° 0 mm 3 mps 763 mmHg 52%
    17:00 +10°C° 0 mm 4 mps 763 mmHg 58%
    18:00 +8°C° 0 mm 4 mps 764 mmHg 61%
    19:00 +7°C° 0 mm 4 mps 764 mmHg 64%
    20:00 +6°C° 0 mm 4 mps 764 mmHg 67%
    21:00 +6°C° 0 mm 4 mps 764 mmHg 66%
    22:00 +6°C° 0 mm 4 mps 764 mmHg 66%
    23:00 +6°C° 0 mm 4 mps 765 mmHg 65%

    21 December, Thursday

    Time Temperature Precipitation Wind Pressure Humidity
    00:00 +6°C° 0 mm 4 mps 765 mmHg 65%
    01:00 +6°C° 0 mm 4 mps 765 mmHg 66%
    02:00 +5°C° 0 mm 4 mps 765 mmHg 66%
    03:00 +5°C° 0 mm 4 mps 764 mmHg 66%
    04:00 +5°C° 0 mm 4 mps 764 mmHg 67%
    05:00 +5°C° 0 mm 4 mps 764 mmHg 67%
    06:00 +5°C° 0 mm 4 mps 765 mmHg 67%
    07:00 +5°C° 0 mm 4 mps 765 mmHg 67%
    08:00 +5°C° 0 mm 4 mps 765 mmHg 67%
    09:00 +7°C° 0 mm 4 mps 765 mmHg 61%
    10:00 +10°C° 0 mm 4 mps 765 mmHg 54%
    11:00 +11°C° 0 mm 4 mps 765 mmHg 48%
    12:00 +12°C° 0 mm 4 mps 764 mmHg 46%
    13:00 +12°C° 0 mm 5 mps 764 mmHg 43%
    14:00 +13°C° 0 mm 5 mps 763 mmHg 40%
    15:00 +10°C° 0 mm 5 mps 763 mmHg 45%
    16:00 +9°C° 0 mm 5 mps 763 mmHg 50%
    17:00 +7°C° 0 mm 5 mps 763 mmHg 55%
    18:00 +6°C° 0 mm 5 mps 764 mmHg 57%
    19:00 +5°C° 0 mm 5 mps 764 mmHg 59%
    20:00 +5°C° 0 mm 5 mps 764 mmHg 61%
    21:00 +3°C° 0 mm 5 mps 765 mmHg 61%
    22:00 +3°C° 0 mm 5 mps 765 mmHg 60%
    23:00 +3°C° 0 mm 5 mps 765 mmHg 59%
    Show more

    XHprof extension not loaded